Location: Helion Bumpstead
(52.0500°N, 0.4000°E)
Time: 22:05:55
(UTC+00:00)

Cosmos 1725 Rocket - Pass Details

Date: 18 February 2026
Orbit: 962 x 989 km, 82.9° (Epoch: 11 March)

Event Time Altitude Azimuth Distance (km) Brightness Sun altitude
Rises 05:23:05 0° 164° (SSE) 3,634 7.2 -16.7°
Reaches altitude 10° 05:25:41 10° 157° (SSE) 2,693 6.6 -16.3°
Maximum altitude 05:31:25 42° 89° (E) 1,346 5.3 -15.4°
Drops below altitude 10° 05:37:12 10° 21° (NNE) 2,720 6.6 -14.5°
Sets 05:39:50 0° 15° (NNE) 3,674 7.2 -14.1°
